User: anonymous   Login
Location: Iesi
(43.5167°N, 13.2333°E)
Time: 12:58:57
(UTC+00:00)
Language:

Sich 1 - Orbit

View from above orbital plane
View from above orbital plane
View from above satellite
View from above satellite

Ground track
Ground track

The orbit data is extracted from the following two-line orbital elements,

1 23657U 95046A   20295.14796447  .00000223  00000-0  22476-4 0  9999
2 23657  82.5300 192.5378 0022199   0.0916   0.0300 14.86193202358956
Epoch (UTC): 21 October 2020 03:33:04
Eccentricity: 0.0022199
inclination: 82.5300°
perigee height: 594 km
apogee height: 625 km
right ascension of ascending node: 192.5378°
argument of perigee: 0.0916°
revolutions per day: 14.86193202
mean anomaly at epoch: 0.0300°
orbit number at epoch: 35895

The dashed part of the orbit path shows where the satellite is in the earth's shadow,  

DLR